CWLEESTJE Weather Reports


Display with metric or nautical units.
time (UTC)temp
F
wind
direction
speed
MPH
gust
MPH
rain 1hr
in
rain 24hr
in
rain mn
in
humidity
%
barometer
mb
20260502130529 73 252 4.0 10.0 0.00 0.55 0.11 66
20260502123525 72 172 2.0 9.0 0.00 0.55 0.11 68
20260502122519 71 189 4.0 8.0 0.00 0.55 0.11 69
20260502121523 71 171 1.0 8.0 0.00 0.55 0.11 70
20260502120535 70 142 6.0 9.0 0.00 0.55 0.11 72
20260502115606 70 116 6.0 10.0 0.00 0.55 0.11 72
20260502114523 69 136 6.0 11.0 0.00 0.55 0.11 73
20260502113537 69 129 7.0 9.0 0.00 0.55 0.11 73
20260502112520 69 180 5.0 10.0 0.00 0.55 0.11 73
20260502111524 69 105 5.0 8.0 0.00 0.55 0.11 75
20260502110537 68 81 6.0 10.0 0.00 0.55 0.11 75
20260502105550 68 155 3.0 7.0 0.00 0.55 0.11 79
20260502104532 67 171 6.0 9.0 0.00 0.55 0.11 76
20260502103527 66 187 5.0 9.0 0.00 0.55 0.11 76
20260502102526 66 190 2.0 10.0 0.00 0.55 0.11 79
20260502101539 66 144 4.0 9.0 0.00 0.55 0.11 82
20260502100523 65 241 5.0 9.0 0.00 0.55 0.11 83
20260502091523 62 172 7.0 10.0 0.00 0.55 0.11 87
20260502090527 62 200 7.0 10.0 0.00 0.55 0.11 88
20260502070521 59 255 8.0 11.0 0.00 0.55 0.11 92
20260502065534 59 257 8.0 11.0 0.00 0.55 0.11 92
20260502064534 59 239 7.0 10.0 0.00 0.55 0.11 92
20260502063547 58 255 5.0 7.0 0.00 0.55 0.11 92
20260502062539 58 256 6.0 7.0 0.00 0.55 0.11 92
20260502061524 57 256 3.0 6.0 0.00 0.55 0.11 92
20260502060538 57 257 3.0 6.0 0.00 0.55 0.11 92
20260502055521 57 257 2.0 5.0 0.00 0.55 0.11 92
20260502054526 57 257 2.0 3.0 0.00 0.55 0.11 92
20260502053519 56 256 2.0 5.0 0.00 0.55 0.11 92
20260502052519 56 257 4.0 5.0 0.00 0.55 0.11 92
20260502051533 55 257 3.0 3.0 0.00 0.55 0.11 92
20260502050537 55 257 1.0 2.0 0.00 0.55 0.11 91
20260502045530 54 257 1.0 4.0 0.00 0.55 0.11 91
20260502044535 54 257 2.0 3.0 0.00 0.55 0.11 91
20260502043517 55 257 0.0 0.0 0.00 0.55 0.11 91
20260502042530 55 257 0.0 0.0 0.00 0.55 0.11 90
20260502041539 55 257 0.0 0.0 0.00 0.55 0.11 91
20260502040523 55 257 0.0 0.0 0.00 0.55 0.11 91
20260502035527 55 257 0.0 0.0 0.00 0.55 0.11 91
20260502034519 55 257 0.0 0.0 0.00 0.55 0.11 90
20260502033552 55 257 0.0 0.0 0.00 0.55 0.11 90
20260502032604 56 257 0.0 2.0 0.16 0.55 0.11 90
20260502031527 56 257 3.0 5.0 0.39 0.55 0.11 89
20260502030526 56 257 0.0 5.0 0.39 0.55 0.11 89
20260502025540 56 257 4.0 5.0 0.39 0.55 0.11 89
20260502024533 56 255 3.0 6.0 0.39 0.55 0.11 89
20260502023537 56 244 4.0 6.0 0.39 0.55 0.11 89
20260502022520 56 240 6.0 9.0 0.35 0.35 0.07 88
20260502021534 56 263 6.0 10.0 0.16 0.16 0.03 88
20260502020547 55 263 7.0 9.0 0.16 0.16 0.03 88
20260502015530 55 294 1.0 2.0 0.16 0.16 0.03 87
20260502014531 55 294 0.0 2.0 0.16 0.16 0.03 87
20260502013524 55 294 0.0 2.0 0.16 0.16 0.03 86
20260502012527 54 294 0.0 2.0 0.00 0.00 0.00 85
20260502011520 54 294 2.0 3.0 0.00 0.00 0.00 85
20260502010524 54 294 0.0 0.0 0.00 0.00 0.00 84
20260502005558 53 294 0.0 1.0 0.00 0.00 0.00 83
20260502004520 53 294 0.0 1.0 0.00 0.00 0.00 82
20260502003529 54 294 0.0 4.0 0.00 0.00 0.00 82
20260502002533 54 294 0.0 4.0 0.00 0.00 0.00 81
20260502001526 54 294 1.0 5.0 0.00 0.00 0.00 80
20260502000531 55 294 1.0 4.0 0.00 0.00 0.00 79
20260501235520 55 294 3.0 5.0 0.00 0.00 0.00 78
20260501234525 56 294 2.0 3.0 0.00 0.00 0.00 76
20260501233536 57 294 1.0 5.0 0.00 0.00 0.00 77
20260501232520 57 294 5.0 7.0 0.00 0.00 0.00 76
20260501231529 57 293 1.0 16.0 0.00 0.00 0.00 77
20260501230533 56 281 0.0 4.0 0.00 0.00 0.00 78
20260501225546 54 280 6.0 18.0 0.00 0.00 0.00 83
20260501224529 53 331 0.0 0.0 0.00 0.00 0.00 82
20260501223543 52 331 0.0 0.0 0.00 0.00 0.00 82
20260501222527 52 331 0.0 0.0 0.00 0.00 0.00 80
20260501221530 53 331 0.0 0.0 0.00 0.00 0.00 80
20260501220523 53 331 0.0 0.0 0.00 0.00 0.00 79
20260501215523 53 331 0.0 2.0 0.00 0.00 0.00 79
20260501214536 53 331 0.0 4.0 0.00 0.00 0.00 79
20260501213519 53 331 2.0 3.0 0.00 0.00 0.00 78
20260501212533 54 331 2.0 5.0 0.00 0.00 0.00 77
20260501211608 54 331 3.0 5.0 0.00 0.00 0.00 76
20260501210550 55 331 1.0 2.0 0.00 0.00 0.00 75
20260501205521 56 331 1.0 4.0 0.00 0.00 0.00 75
20260501204522 56 331 3.0 4.0 0.00 0.00 0.00 74
20260501203536 57 331 1.0 3.0 0.00 0.00 0.00 73
20260501202520 59 331 1.0 2.0 0.00 0.00 0.00 71
20260501201534 60 331 0.0 0.0 0.00 0.00 0.00 70
20260501200606 61 331 0.0 2.0 0.00 0.00 0.00 68
20260501195529 62 331 1.0 5.0 0.00 0.00 0.00 67
20260501194534 62 331 3.0 5.0 0.00 0.00 0.00 66
20260501193526 64 331 4.0 6.0 0.00 0.00 0.00 64
20260501192525 65 360 5.0 7.0 0.00 0.00 0.00 62
20260501191539 66 334 4.0 8.0 0.00 0.00 0.00 58
20260501190523 67 317 4.0 9.0 0.00 0.00 0.00 56
20260501185537 69 272 3.0 5.0 0.00 0.00 0.00 52
20260501184522 71 171 5.0 6.0 0.00 0.00 0.00 50
20260501183527 72 167 3.0 6.0 0.00 0.00 0.00 46
20260501182520 72 169 5.0 7.0 0.00 0.00 0.00 45
20260501181524 73 159 4.0 6.0 0.00 0.00 0.00 45
20260501180534 73 144 4.0 7.0 0.00 0.00 0.00 45
20260501175537 74 145 5.0 8.0 0.00 0.00 0.00 42
20260501174530 73 148 5.0 8.0 0.00 0.00 0.00 44
20260501173534 74 208 7.0 10.0 0.00 0.00 0.00 46
20260501172526 74 150 5.0 9.0 0.00 0.00 0.00 42
20260501171559 75 147 6.0 10.0 0.00 0.00 0.00 43
20260501170523 75 214 8.0 12.0 0.00 0.00 0.00 44
20260501165524 75 145 6.0 10.0 0.00 0.00 0.00 41
20260501164536 76 360 8.0 11.0 0.00 0.00 0.00 43
20260501163520 75 149 6.0 11.0 0.00 0.00 0.00 41
20260501162533 76 195 8.0 12.0 0.00 0.00 0.00 41
20260501161538 76 184 10.0 13.0 0.00 0.00 0.00 42
20260501160529 76 174 6.0 12.0 0.00 0.00 0.00 41
20260501155558 76 143 6.0 13.0 0.00 0.00 0.00 40
20260501154522 76 196 5.0 12.0 0.00 0.00 0.00 39
20260501153550 76 209 7.0 11.0 0.00 0.00 0.00 37
20260501152534 76 119 9.0 12.0 0.00 0.00 0.00 38
20260501151528 76 150 6.0 12.0 0.00 0.00 0.00 43
20260501150531 76 186 7.0 18.0 0.00 0.00 0.00 40
20260501145541 76 152 6.0 13.0 0.00 0.00 0.00 38